Overview Statistics Trail Chart Weather Telemetry Raw packets
 

This is the latest recevied weather packets stored in our database for station/object WX0ABE-13. If no packets are shown the sender has not sent any weather packets the latest 10 day(s).

<< 68 69 70 71 72 73 74 >>
Time Temp. Humidity Pressure Rain* Wind** Luminosity Snow
1787861742 32.78° C 31% 1020.4 hPa 0 mm - 622 W/m² -
1787861440 32.78° C 31% 1020.4 hPa 0 mm - 629 W/m² -
1787861136 32.78° C 31% 1020.4 hPa 0 mm - 635 W/m² -
1787860834 32.22° C 31% 1020.8 hPa 0 mm - 640 W/m² -
1787860529 32.22° C 31% 1020.8 hPa 0 mm - 646 W/m² -
1787860225 32.22° C 30% 1020.9 hPa 0 mm - 650 W/m² -
1787859926 32.22° C 31% 1020.8 hPa 0 mm - 654 W/m² -
1787859615 32.22° C 31% 1020.7 hPa 0 mm - 660 W/m² -
1787859315 31.67° C 31% 1021 hPa 0 mm - 663 W/m² -
1787859011 32.22° C 31% 1021.1 hPa 0 mm - 665 W/m² -
1787858707 32.22° C 32% 1021.2 hPa 0 mm - 666 W/m² -
1787858402 31.67° C 32% 1021.1 hPa 0 mm - 671 W/m² -
1787858102 31.67° C 32% 1021.1 hPa 0 mm - 671 W/m² -
1787857797 31.67° C 32% 1021.1 hPa 0 mm - 676 W/m² -
1787857493 31.67° C 33% 1021.2 hPa 0 mm - 676 W/m² -
1787857191 31.11° C 32% 1021.3 hPa 0 mm - 678 W/m² -
1787856886 31.11° C 33% 1021.1 hPa 0 mm - 679 W/m² -
1787856585 31.67° C 33% 1021.1 hPa 0 mm - 679 W/m² -
1787856281 31.11° C 33% 1021.3 hPa 0 mm - 678 W/m² -
1787855977 31.11° C 33% 1021.3 hPa 0 mm - 678 W/m² -
1787855676 30.56° C 33% 1021.6 hPa 0 mm - 677 W/m² -
1787855371 30.56° C 33% 1021.6 hPa 0 mm - 677 W/m² -
1787855067 30.56° C 34% 1021.4 hPa 0 mm - 676 W/m² -
1787854762 30.56° C 35% 1021.7 hPa 0 mm - 673 W/m² -
1787854461 30.56° C 35% 1021.7 hPa 0 mm - 671 W/m² -

* Rain latest hour (hover to see other rain measurements)
** Current wind speed in m/s (hover to see current wind gust speed)